This is the latest recevied weather packets stored in our database for station/object N2WH. If no packets are shown the sender has not sent any weather packets the latest 10 day(s).
| Time | Temp. | Humidity | Pressure | Rain* | Wind** | Luminosity | Snow |
|---|---|---|---|---|---|---|---|
| 1777923399 | 22.78° C | 33% | 1010.5 hPa | 0 mm | - | 595 W/m² | - |
| 1777923097 | 22.78° C | 33% | 1010.5 hPa | 0 mm | - | 584 W/m² | - |
| 1777922795 | 22.78° C | 34% | 1010.8 hPa | 0 mm | - | 596 W/m² | - |
| 1777922493 | 22.78° C | 34% | 1010.8 hPa | 0 mm | - | 577 W/m² | - |
| 1777922191 | 23.33° C | 32% | 1010.7 hPa | 0 mm | - | 582 W/m² | - |
| 1777921887 | 22.78° C | 34% | 1010.8 hPa | 0 mm | - | 617 W/m² | - |
| 1777921583 | 22.78° C | 32% | 1010.8 hPa | 0 mm | - | 641 W/m² | - |
| 1777921280 | 23.33° C | 33% | 1010.8 hPa | 0 mm | - | 649 W/m² | - |
| 1777920976 | 23.33° C | 32% | 1010.7 hPa | 0 mm | - | 661 W/m² | - |
| 1777920673 | 22.78° C | 34% | 1010.9 hPa | 0 mm | - | 640 W/m² | - |
| 1777920369 | 22.78° C | 34% | 1010.9 hPa | 0 mm | - | 610 W/m² | - |
| 1777920064 | 23.33° C | 33% | 1011.1 hPa | 0 mm | - | 648 W/m² | - |
| 1777919762 | 22.78° C | 35% | 1011.1 hPa | 0 mm | - | 659 W/m² | - |
| 1777919459 | 22.78° C | 33% | 1011.1 hPa | 0 mm | - | 677 W/m² | - |
| 1777919156 | 22.22° C | 34% | 1011.3 hPa | 0 mm | - | 699 W/m² | - |
| 1777918854 | 22.78° C | 34% | 1011.5 hPa | 0 mm | - | 664 W/m² | - |
| 1777918550 | 23.33° C | 35% | 1011.5 hPa | 0 mm | - | 583 W/m² | - |
| 1777918249 | 22.78° C | 34% | 1011.3 hPa | 0 mm | - | 520 W/m² | - |
| 1777917947 | 21.67° C | 35% | 1011.7 hPa | 0 mm | - | 532 W/m² | - |
| 1777917646 | 22.22° C | 36% | 1011.6 hPa | 0 mm | - | 633 W/m² | - |
| 1777917343 | 22.78° C | 36% | 1011.7 hPa | 0 mm | - | 696 W/m² | - |
| 1777917039 | 22.78° C | 34% | 1011.6 hPa | 0 mm | - | 689 W/m² | - |
| 1777916738 | 22.78° C | 35% | 1011.7 hPa | 0 mm | - | 637 W/m² | - |
| 1777916434 | 21.67° C | 36% | 1011.8 hPa | 0 mm | - | 665 W/m² | - |
| 1777916131 | 21.67° C | 35% | 1012 hPa | 0 mm | - | 668 W/m² | - |
* Rain latest hour (hover to see other rain measurements)
** Current wind speed in m/s (hover to see current wind gust speed)